Location: Mentone
(34.5413°N, 85.5351°W)
Time: 01:10:32
(UTC-05:00)

Vanguard 2 Rocket - Visible Passes

Search period start: 25 August 2016 00:00
Search period end: 04 September 2016 00:00
Orbit: 555 x 3328 km, 32.9° (Epoch: 23 August)

Date Brightness Start Highest point End Pass type
(mag) Time Alt. Az. Time Alt. Az. Time Alt. Az.
25 Aug 9.7 00:08:41 10° W 00:22:34 48° WSW 00:22:34 48° WSW visible
25 Aug 9.2 20:52:46 10° W 21:06:39 83° S 21:20:01 28° ESE visible
25 Aug 9.4 23:07:54 10° W 23:24:56 62° SSW 23:25:47 62° SSW visible
26 Aug 10.5 01:26:11 10° W 01:31:32 20° W 01:31:32 20° W visible
26 Aug 9.1 19:53:21 10° W 20:05:18 85° S 20:23:18 13° E visible
26 Aug 9.3 22:07:41 10° W 22:23:14 70° SSW 22:29:04 54° SE visible
27 Aug 10.1 00:24:13 10° W 00:34:48 34° WSW 00:34:48 34° WSW visible
27 Aug 9.2 21:07:53 10° W 21:21:41 77° SSW 21:32:23 36° ESE visible
27 Aug 9.6 23:23:11 10° W 23:38:09 50° SW 23:38:09 50° SW visible
28 Aug 10.8 01:43:21 10° W 01:43:55 11° W 01:43:55 11° W visible
28 Aug 9.1 20:08:29 10° W 20:20:24 82° S 20:35:47 19° ESE visible
28 Aug 9.4 22:22:50 10° W 22:38:01 60° SSW 22:41:33 54° S visible
29 Aug 10.4 00:40:20 10° W 00:47:19 23° WSW 00:47:19 23° WSW visible
29 Aug 8.9 19:09:23 10° W 19:19:31 84° S 19:37:18 10° E visible
29 Aug 9.3 21:23:01 10° W 21:36:36 68° SSW 21:45:01 41° SE visible
29 Aug 10.0 23:38:47 10° W 23:50:47 37° SW 23:50:47 37° SW visible
30 Aug 9.1 20:23:36 10° W 20:35:26 75° SSW 20:48:33 25° ESE visible
30 Aug 9.6 22:38:11 10° W 22:52:43 48° SSW 22:54:20 47° SSW visible
31 Aug 10.7 00:57:43 10° W 01:00:07 13° WSW 01:00:07 13° WSW visible
31 Aug 8.9 19:24:30 10° W 19:34:37 80° S 19:52:09 10° ESE visible
31 Aug 9.4 21:38:14 10° W 21:51:28 56° SSW 21:57:55 43° SSE visible
31 Aug 10.3 23:55:04 10° W 00:03:43 25° WSW 00:03:43 25° WSW visible
01 Sep 9.1 20:38:45 10° W 20:50:25 65° SSW 21:01:36 28° SE visible
01 Sep 9.9 22:53:54 10° W 23:07:23 36° SSW 23:07:24 36° SSW visible
02 Sep 8.9 19:39:38 10° W 19:49:40 72° SSW 20:05:20 14° ESE visible
02 Sep 9.6 21:53:38 10° W 22:06:17 44° SSW 22:11:08 38° S visible
03 Sep 10.6 00:12:46 10° WSW 00:16:57 15° WSW 00:16:57 15° WSW visible
03 Sep 9.3 20:54:00 10° W 21:05:20 52° SSW 21:14:58 29° SSE visible
03 Sep 10.2 23:10:22 10° W 23:20:47 25° SW 23:20:47 25° SW visible
